Terug naar catalogus

STARLINK-4308

ActiefCommunicatieSSO
NORAD 53061·PAYLOAD·🇺🇸 United States

Gelanceerd Jul 11, 2022 vanaf Vandenberg Space Force Base

Loading…

Volgende Passages (komende 24 uur)

TLE

VersSource: CelesTrak SupGP

Epoch: Sep 15, 2026, 01:48 UTC

1 53061C 22077U   26258.07548611 -.00043865  00000+0 -13616-2 0  2582
2 53061  97.2861  72.9981 0001550  92.3407 240.0483 15.33462345    10

Volg STARLINK-4308 in realtime met AllMySat

Download on the App Store